Regional Weather Roundup
Issued by NWS Sterling, VA

Home | Current Version | Previous Version | Text Only | Print | Product List | Glossary Off
Versions: 1 2 3 4 5 6 7 8 9 10 11 12 13 14 15 16 17 18 19 20 21 22 23 24 25 26 27

000
ASUS41 KLWX 230111
RWRLWX

REGIONAL WEATHER ROUNDUP
NATIONAL WEATHER SERVICE BALTIMORE MD/WASHINGTON DC
900 PM EDT SUN OCT 22 2017

Note: "FAIR" indicates few or no clouds below 12,000 feet
with no significant weather and/or obstructions to visibility.
 TC=TEMPERATURE CELSIUS

 * =Non NWS site. Station does not report precipitation (e.g. rain,
    snow, etc.), thunder, or fog.

DCZ001-MDZ009-015-VAZ040>042-051-053>054-230200-
WASHINGTON METRO

CITY           SKY/WX    TMP DP  RH WIND       PRES   REMARKS
WASHINGTON NAT MOCLDY    66  54  65 S9        30.33R
DULLES         MOCLDY    63  52  67 SE5       30.32S
ANDREWS AFB    CLEAR     55  48  76 S5        30.32S
FT BELVOIR     CLOUDY    57  53  88 CALM      30.32R
QUANTICO       CLOUDY    66  60  81 S7        30.33S
COLLEGE PARK*  CLEAR     55  50  81 CALM      30.33R
LEESBURG*      CLOUDY    66  55  68 S8        30.33S
MANASSAS*      CLOUDY    62  53  72 S5        30.32S
GAITHERSBURG*  CLEAR     58  48  69 SE6       30.34R

$$

MDZ006>007-011-014-230200-
BALTIMORE METRO

CITY           SKY/WX    TMP DP  RH WIND       PRES   REMARKS
BWI AIRPORT    PTCLDY    59  54  83 E3        30.33R
MD SCIENCE CTR   N/A     68  55  63 MISG      30.34R
MARTIN STATE   PTCLDY    61  61 100 CALM      30.36R
ANNAPOLIS      CLEAR     64  61  90 CALM      30.33R
FORT MEADE*    CLEAR     52  50  93 CALM      30.35S

$$

MDZ012-015-019>023-230200-
MARYLAND EASTERN SHORE

CITY           SKY/WX    TMP DP  RH WIND       PRES   REMARKS
OCEAN CITY     CLEAR     66  65  96 CALM      30.35S
SALISBURY      CLEAR     59  59 100 SE5       30.34R
CAMBRIDGE*     CLEAR     61  55  82 SE6       30.34R

$$

MDZ017>025-230200-
SOUTHERN MARYLAND

CITY           SKY/WX    TMP DP  RH WIND       PRES   REMARKS
PATUXENT RIVER CLEAR     66  61  84 S6        30.33R
ST INIGOES     PTCLDY    66  61  84 SE3       30.33R
LEONARDTOWN*   NOT AVBL

$$

MDZ003>005-230200-
NORTH CENTRAL MARYLAND

CITY           SKY/WX    TMP DP  RH WIND       PRES   REMARKS
FREDERICK*     NOT AVBL
HAGERSTOWN APT PTCLDY    65  52  62 SE8       30.30S
WESTMINSTER*   PTCLDY    63  52  67 S5        30.33S

$$

MDZ501>502-230200-
WESTERN MARYLAND

CITY           SKY/WX    TMP DP  RH WIND       PRES   REMARKS
OAKLAND*       CLOUDY    59  46  63 SE12      30.26S
CUMBERLAND*    PTCLDY    66  54  63 S6        30.30S

$$

VAZ025>031-230200-
SHENANDOAH VALLEY

CITY           SKY/WX    TMP DP  RH WIND       PRES   REMARKS
WINCHESTER*    CLOUDY    61  54  77 SE5       30.30S
FRONT ROYAL*   CLOUDY    63  55  77 CALM      30.29S
LURAY*         CLOUDY    59  54  82 CALM      30.31S
NEW MARKET*    CLOUDY    65  53  66 SW3       30.29F
STAUNTON*      CLOUDY    56  51  83 CALM      30.32F
WAYNESBORO*    PTCLDY    61  55  80 SE3       30.32S

$$

WVZ021-048>050-054>055-230200-
EASTERN WEST VIRGINIA PANHANDLE

CITY           SKY/WX    TMP DP  RH WIND       PRES   REMARKS
MARTINSBURG    PTCLDY    64  53  67 SE6       30.29S
PETERSBURG*    PTCLDY    60  52  76 CALM      30.27F

$$

VAZ036>039-050-230200-
CENTRAL FOOTHILLS

CITY           SKY/WX    TMP DP  RH WIND       PRES   REMARKS
CHARLOTTESVILL CLOUDY    68  56  65 SE3       30.31R
CULPEPER*      CLOUDY    61  54  79 CALM      30.32S
ORANGE*        MOCLDY    55  54  94 CALM      30.31S
GORDONSVILLE*  PTCLDY    58  57  97 CALM      30.31S
WARRENTON*     PTCLDY    62  51  66 SE6       30.31S

$$

VAZ055>057-230200-
NORTH AND CENTRAL PIEDMONT

CITY           SKY/WX    TMP DP  RH WIND       PRES   REMARKS
FREDERICKSBRG* CLOUDY    60  57  89 SE3       30.31S
STAFFORD*      CLOUDY    55  55 100 CALM      30.36S

$$

NCZ024-NYZ072-PAZ021-071-VAZ022-071-230200-
OTHER REGIONAL OBSERVATIONS

CITY           SKY/WX    TMP DP  RH WIND       PRES   REMARKS
NEW YORK CITY  PTCLDY    64  51  62 VRB5      30.40R
PHILADELPHIA   MOCLDY    62  50  64 SE5       30.36R
PITTSBURGH     CLOUDY    65  51  60 SE7       30.18S
ROANOKE        MOCLDY    64  52  64 CALM      30.31S
RICHMOND       PTCLDY    62  57  83 SE6       30.32R
RALEIGH        MOCLDY    65  59  81 E5        30.29S

$$

ANZ530>537-230200-
MARINE OBSERVATIONS

STATION/POSITION TIME  TEMP    WIND        PRES
                       AIR SEA DIR/SP/G
                 (UTC) (F)     (DEG/KT/KT) (MB)
THOMAS PT LIGHT  0100   68 68  140/ 10/ 10   N/A
BALT KEY BRIDGE  0030   67     140/  6/  8 1026.9R
COVE POINT       0030   68     170/ 15/ 16 1027.7R
LEWISETTA        0030   66 67  180/  5/  6 1026.9R
SOLOMONS ISLAND  0030   67 70  160/  7/  9 1026.7R
PINEY POINT      0030          170/ 11/ 13   N/A

$$





USA.gov is the U.S. government's official web portal to all federal, state and local government web resources and services.